Wind_Speed
5 5 4 4 3 4 4 3 4 3 3 4 4 4 5 5 5 6 6 6 6 6 6 6 6 7 6 6 6 6 6 6 6 6 7 7 8 8 8 8 7 7 7
6 6 5 5 5 5 4 3 3 2 3 2 3 3 4 5 4 6 6 6 6 6 6 6 6 5 6 6 6 6 7 7 7 8 8 8 9 9 8 7 7 8 8
6 6 6 6 5 5 5 4 2 2 2 2 3 4 5 4 4 6 6 6 6 6 6 6 6 6 6 7 7 8 8 8 8 8 9 9 8 8 8 8 8 8 8
6 7 7 6 6 6 5 4 2 2 2 3 4 4 4 4 4 4 5 6 6 6 6 6 6 6 7 8 8 8 9 9 8 8 8 8 8 8 8 9 9 9 9
6 7 7 7 7 7 6 4 2 2 3 4 5 5 4 4 4 4 5 5 5 6 7 6 6 6 8 8 8 9 10 9 9 10 10 10 9 9 9 9 9 9 9
7 7 7 8 8 8 7 4 3 3 4 4 5 5 4 3 4 5 4 5 5 6 7 6 7 7 8 8 9 10 11 11 11 10 11 11 11 11 10 10 10 11 11
7 7 7 8 8 8 7 6 6 5 5 4 5 5 5 5 5 5 5 5 6 7 7 7 8 8 9 9 9 10 10 11 11 11 11 11 11 11 11 11 11 11 11
7 7 8 9 8 8 7 7 7 6 6 6 7 6 5 5 5 5 5 6 7 7 8 8 9 9 9 9 10 11 11 11 12 12 12 12 11 11 12 12 12 13 13
8 8 9 9 9 8 8 7 7 7 7 7 7 7 6 6 6 6 6 7 7 8 8 9 9 9 9 10 10 10 11 11 12 13 13 13 12 12 12 13 13 13 13
9 10 10 10 10 9 9 9 9 9 9 8 8 7 7 7 7 7 7 7 8 8 9 9 9 10 11 11 11 12 12 13 13 13 13 13 13 13 14 14 14 14 14
10 10 11 11 11 11 11 11 10 10 10 10 9 9 8 8 8 8 9 8 8 9 9 10 10 11 12 12 12 12 13 13 14 14 14 14 14 15 15 15 16 16 16
12 12 12 12 12 13 12 12 12 12 12 12 11 11 10 10 9 10 11 11 10 11 12 12 12 12 13 12 13 13 14 14 14 14 15 15 15 15 15 15 16 16 16
14 14 14 14 14 14 14 14 14 13 13 13 13 12 12 11 12 12 12 13 13 13 14 14 13 13 14 13 14 15 14 14 14 15 15 15 15 16 16 17 17 17 17
15 15 15 15 15 15 15 15 15 14 14 14 14 14 14 14 14 14 14 14 15 15 15 14 14 14 14 14 15 16 16 16 16 16 16 16 17 17 18 18 18 18 18
16 16 16 16 16 16 15 15 15 15 15 15 15 15 15 15 15 16 16 16 16 16 16 16 16 16 16 15 16 17 17 18 18 18 18 18 18 18 18 18 18 18 18
17 17 17 17 17 16 16 17 17 17 17 17 17 17 17 17 17 17 17 17 17 18 18 18 18 18 18 18 18 19 19 19 19 20 19 19 20 20 20 20 19 19 19
17 17 17 18 18 18 18 18 18 18 19 19 19 19 19 19 19 19 19 19 19 19 19 19 19 19 19 20 20 20 20 20 20 20 20 20 20 20 20 20 20 21 20
18 19 19 19 20 20 20 19 19 20 20 20 20 21 21 20 20 20 21 21 21 21 21 20 20 21 21 21 21 22 22 21 21 21 21 21 21 21 21 21 20 21 20
20 21 21 21 22 22 22 21 21 22 22 21 21 22 21 21 22 22 23 23 23 23 22 22 22 22 22 22 22 22 22 22 22 22 22 22 22 22 22 22 21 21 21
22 23 23 23 23 23 23 23 23 23 22 22 22 22 22 22 22 23 23 24 24 24 24 23 23 23 24 24 24 24 23 23 23 24 23 23 23 23 23 23 22 22 22
24 24 24 24 25 25 25 25 24 24 24 23 23 24 24 24 25 25 25 25 25 25 25 25 25 25 25 25 26 25 25 25 25 26 25 24 24 23 23 23 23 22 22
25 26 25 25 25 26 25 25 25 25 25 25 25 25 26 26 26 25 26 26 26 27 27 27 26 27 27 27 27 27 26 26 26 27 25 25 24 24 23 23 23 22 22
26 26 26 26 26 26 26 26 26 26 26 27 27 27 27 27 26 27 27 27 27 27 27 27 27 27 27 27 28 28 28 28 27 28 27 26 26 25 24 25 25 24 23
27 26 26 26 27 27 27 28 28 28 28 28 27 27 28 27 27 27 27 27 27 27 27 28 28 28 28 27 27 28 28 29 28 28 28 27 27 26 25 25 25 25 25
27 26 27 27 28 28 28 29 29 29 28 28 28 28 28 27 27 27 28 28 27 27 28 28 28 28 28 28 28 28 28 28 28 28 28 27 27 27 26 25 25 25 25
28 28 29 29 29 29 29 29 30 30 29 29 29 29 28 28 28 29 29 28 28 27 28 28 28 28 29 29 29 29 29 28 28 28 28 28 27 27 26 25 25 25 25
Wind_Direction
5 360 359 2 347 341 336 302 290 259 248 240 230 231 239 244 247 248 255 263 262 265 262 261 260 262 265 267 274 276 275 278 274 278 275 278 279 275 271 270 275 270 266
3 3 2 356 356 355 350 327 296 246 249 259 256 251 253 250 253 250 259 265 264 267 267 267 265 264 266 268 274 280 282 285 281 278 276 278 281 272 268 268 272 276 267
5 2 359 353 0 357 347 344 317 265 254 269 272 265 262 260 263 259 266 269 268 268 267 264 260 263 270 272 280 282 284 285 282 281 278 283 286 282 272 269 270 273 270
360 356 353 348 356 9 2 350 313 265 248 267 283 275 265 270 266 260 268 270 271 270 270 264 267 272 277 281 283 284 287 290 288 290 287 287 284 280 280 277 272 270 271
351 353 355 358 359 358 358 358 351 303 269 270 278 280 283 285 269 267 262 262 258 259 262 263 267 273 278 279 280 282 283 284 291 290 288 287 281 273 273 275 276 272 271
347 351 353 357 358 360 356 347 333 311 308 301 298 294 299 290 268 268 263 262 257 259 264 267 270 274 278 280 283 286 284 282 286 287 286 285 279 273 268 269 273 275 274
344 347 350 349 349 350 355 358 351 335 329 325 320 314 309 296 276 266 266 265 264 267 269 267 271 276 280 281 284 285 286 285 285 285 286 286 282 277 273 273 273 273 272
342 340 341 340 338 340 341 344 342 339 334 329 327 325 315 300 285 281 274 269 272 278 276 272 275 279 280 281 284 286 288 288 287 284 282 281 279 277 275 274 272 270 270
338 330 332 334 336 338 340 336 331 330 325 323 322 318 311 310 300 293 294 284 281 282 282 283 283 286 283 284 287 290 289 291 290 286 280 276 274 274 275 274 273 274 270
335 331 331 330 327 325 325 320 319 320 322 321 318 309 305 306 302 296 293 293 288 286 285 284 287 288 288 289 287 290 291 289 288 287 282 276 276 275 276 275 272 274 274
323 324 326 327 324 320 318 315 311 311 313 314 315 311 307 301 296 295 295 295 292 289 289 290 290 291 291 289 291 292 293 292 287 284 283 281 281 280 277 277 274 275 274
315 317 318 318 317 316 313 312 308 305 304 305 306 304 300 296 291 290 290 290 289 287 288 290 293 291 292 290 289 290 292 290 290 286 283 285 284 283 280 281 278 276 275
312 312 311 310 310 309 306 306 304 301 301 301 300 299 299 298 295 290 289 289 288 287 288 288 288 290 292 291 290 289 288 290 290 289 288 286 286 284 283 284 282 279 275
311 311 310 308 307 306 304 302 301 297 295 294 294 293 293 295 294 291 290 290 288 287 288 288 288 288 291 292 291 289 289 291 292 292 288 286 286 286 286 286 282 280 276
311 311 311 309 308 306 304 303 302 298 295 293 290 288 287 288 288 287 287 287 286 287 288 288 289 290 289 290 290 290 290 291 291 292 288 287 286 286 286 285 282 281 279
309 309 309 308 307 306 304 302 301 298 295 293 290 288 286 284 283 283 284 284 284 285 286 286 287 287 287 287 288 288 290 291 292 293 291 286 285 285 286 284 282 281 279
305 306 307 306 305 304 304 303 301 300 296 293 290 288 286 283 282 282 283 285 285 284 284 286 287 286 286 287 288 289 289 290 291 292 290 288 285 285 285 285 282 279 279
303 303 303 303 303 302 301 300 300 299 297 296 292 288 285 283 282 282 283 285 286 285 285 286 286 287 287 288 288 288 288 288 288 290 291 292 290 288 287 286 286 282 280
301 301 301 301 301 300 299 298 298 299 297 296 293 289 286 284 283 282 283 284 284 283 284 284 285 285 286 287 288 287 288 288 288 289 290 291 290 289 287 285 283 282 280
300 299 299 299 300 299 298 297 297 297 297 295 293 291 288 286 284 283 284 285 283 282 283 283 283 283 284 286 286 286 287 288 288 287 288 289 290 289 287 284 281 279 278
299 298 298 298 298 298 298 296 295 295 295 294 293 292 291 288 285 283 283 283 282 281 281 281 281 282 283 284 286 286 285 285 286 287 287 287 287 286 286 284 281 279 278
300 298 298 298 298 299 298 296 295 294 293 292 292 292 291 290 287 284 283 282 281 280 279 279 280 282 283 284 285 285 285 284 284 285 286 287 286 285 285 283 281 278 276
300 299 299 298 297 296 296 294 294 293 292 292 292 292 292 292 288 285 284 283 282 280 278 279 280 281 282 282 283 283 282 283 284 285 284 285 284 284 284 282 280 278 274
299 299 299 298 298 298 297 296 295 293 292 292 294 295 294 292 290 289 288 286 283 281 280 279 280 281 281 282 282 282 281 282 282 283 283 284 284 283 282 280 280 279 276
298 298 298 299 298 298 298 297 297 295 294 294 295 295 293 292 291 290 289 287 284 283 281 280 279 280 281 280 280 281 282 282 282 283 284 284 284 283 282 280 279 279 278
298 297 298 299 299 298 297 297 296 295 294 294 294 293 292 291 290 290 288 286 283 282 281 280 280 280 280 279 280 281 282 282 282 283 284 284 283 282 282 281 279 279 277
Height
5868 5867 5867 5865 5865 5863 5862 5860 5859 5859 5859 5860 5861 5863 5864 5865 5867 5869 5870 5871 5872 5873 5873 5874 5874 5875 5875 5876 5876 5876 5876 5876 5877 5877 5877 5877 5877 5877 5878 5879 5879 5880 5880
5869 5868 5867 5866 5864 5863 5861 5860 5858 5858 5859 5860 5862 5863 5864 5865 5866 5867 5868 5870 5871 5871 5872 5872 5872 5873 5873 5874 5874 5874 5874 5874 5874 5874 5874 5875 5875 5875 5876 5876 5877 5878 5878
5870 5870 5868 5867 5864 5863 5861 5860 5858 5859 5859 5860 5861 5862 5863 5864 5865 5865 5867 5868 5869 5870 5870 5870 5871 5871 5872 5872 5872 5872 5872 5872 5872 5872 5872 5872 5872 5872 5873 5874 5874 5875 5876
5871 5870 5869 5867 5865 5863 5862 5860 5859 5858 5859 5860 5861 5862 5863 5863 5864 5865 5866 5867 5868 5868 5868 5869 5869 5869 5870 5870 5870 5870 5870 5870 5870 5870 5870 5870 5870 5870 5871 5871 5872 5872 5873
5871 5870 5869 5868 5866 5865 5863 5861 5860 5859 5860 5860 5861 5861 5862 5862 5863 5864 5865 5865 5866 5866 5867 5867 5868 5868 5868 5868 5868 5868 5868 5868 5868 5868 5867 5867 5867 5868 5868 5869 5869 5870 5870
5871 5870 5870 5868 5867 5866 5864 5863 5861 5861 5861 5861 5861 5861 5861 5861 5862 5862 5863 5864 5864 5865 5865 5865 5866 5866 5866 5866 5865 5865 5865 5865 5865 5865 5865 5865 5865 5865 5865 5866 5867 5867 5868
5872 5870 5869 5869 5868 5866 5865 5864 5863 5862 5861 5861 5861 5860 5860 5860 5861 5861 5862 5862 5862 5863 5863 5863 5863 5864 5864 5864 5863 5863 5863 5862 5862 5862 5862 5862 5862 5862 5863 5863 5864 5864 5864
5872 5870 5869 5869 5867 5866 5865 5864 5863 5863 5862 5861 5861 5860 5860 5860 5860 5860 5860 5861 5861 5861 5861 5861 5861 5861 5861 5861 5861 5861 5860 5860 5860 5860 5859 5859 5859 5859 5859 5860 5860 5861 5861
5871 5870 5869 5868 5867 5866 5865 5864 5863 5862 5862 5861 5861 5860 5860 5859 5859 5859 5859 5859 5859 5859 5859 5859 5859 5859 5859 5859 5859 5858 5858 5857 5857 5856 5856 5856 5856 5856 5856 5856 5857 5857 5857
5871 5870 5869 5867 5867 5865 5864 5863 5862 5862 5861 5860 5859 5859 5859 5858 5858 5858 5858 5858 5857 5858 5857 5857 5857 5857 5857 5857 5856 5856 5855 5855 5854 5853 5852 5852 5852 5852 5853 5853 5853 5853 5853
5870 5869 5868 5866 5865 5864 5863 5862 5861 5860 5859 5859 5858 5857 5857 5857 5856 5857 5856 5856 5856 5855 5855 5855 5855 5854 5854 5854 5853 5853 5852 5852 5851 5850 5849 5849 5849 5849 5849 5849 5849 5849 5849
5868 5867 5866 5865 5863 5862 5861 5860 5859 5858 5857 5856 5856 5855 5855 5855 5854 5854 5854 5854 5853 5853 5853 5853 5852 5852 5851 5851 5850 5850 5849 5848 5847 5846 5845 5846 5845 5845 5845 5845 5845 5845 5845
5866 5865 5864 5863 5861 5860 5859 5858 5856 5855 5854 5854 5853 5853 5853 5852 5852 5852 5851 5851 5851 5850 5850 5849 5849 5848 5848 5847 5847 5846 5845 5845 5844 5843 5843 5842 5841 5841 5841 5841 5840 5840 5840
5864 5862 5861 5860 5858 5857 5856 5855 5854 5852 5852 5851 5850 5850 5849 5849 5849 5848 5848 5848 5847 5847 5846 5845 5845 5844 5843 5843 5843 5842 5842 5841 5840 5840 5839 5838 5837 5837 5836 5836 5836 5835 5835
5861 5859 5858 5856 5855 5854 5852 5851 5850 5849 5848 5847 5847 5846 5846 5845 5845 5844 5844 5844 5844 5843 5842 5842 5841 5841 5840 5839 5839 5838 5838 5837 5836 5835 5834 5834 5833 5832 5832 5831 5831 5831 5830
5858 5856 5855 5853 5851 5850 5849 5847 5846 5845 5844 5843 5842 5842 5841 5841 5840 5840 5840 5839 5839 5839 5838 5838 5837 5836 5836 5835 5835 5834 5833 5832 5831 5830 5830 5829 5828 5828 5827 5826 5826 5826 5825
5854 5853 5851 5850 5848 5846 5845 5844 5842 5841 5840 5839 5838 5837 5836 5836 5836 5835 5835 5834 5834 5833 5833 5833 5832 5832 5831 5830 5830 5829 5828 5827 5826 5825 5824 5823 5823 5822 5821 5821 5820 5820 5820
5851 5849 5847 5846 5844 5842 5841 5839 5838 5837 5835 5834 5833 5832 5831 5830 5829 5829 5829 5828 5828 5828 5828 5827 5826 5826 5826 5825 5824 5824 5823 5822 5821 5820 5819 5818 5817 5816 5816 5815 5814 5814 5814
5846 5844 5843 5841 5839 5838 5836 5834 5833 5832 5830 5829 5827 5826 5825 5824 5824 5823 5823 5822 5821 5821 5821 5821 5821 5820 5819 5819 5818 5818 5817 5816 5815 5814 5813 5812 5811 5810 5809 5808 5808 5808 5808
5841 5840 5838 5836 5834 5832 5831 5829 5827 5826 5824 5823 5821 5820 5819 5818 5817 5817 5816 5815 5814 5814 5814 5814 5814 5814 5813 5812 5812 5811 5810 5809 5809 5808 5807 5806 5804 5804 5803 5802 5801 5801 5801
5836 5834 5832 5830 5828 5826 5825 5823 5821 5819 5818 5816 5815 5814 5813 5811 5811 5810 5809 5808 5807 5807 5807 5807 5807 5807 5806 5805 5805 5804 5804 5803 5802 5800 5800 5799 5798 5797 5796 5795 5794 5794 5793
5830 5828 5826 5824 5822 5820 5818 5816 5814 5813 5811 5810 5808 5807 5805 5804 5803 5802 5801 5801 5800 5800 5799 5799 5799 5799 5798 5798 5797 5796 5796 5795 5794 5793 5793 5792 5791 5790 5790 5788 5788 5787 5786
5824 5822 5820 5818 5816 5814 5812 5810 5808 5806 5804 5802 5801 5799 5798 5797 5795 5794 5793 5793 5792 5791 5791 5791 5791 5791 5790 5790 5789 5788 5787 5787 5786 5785 5784 5784 5783 5783 5782 5781 5780 5779 5779
5817 5815 5813 5811 5809 5807 5805 5803 5801 5799 5797 5795 5793 5792 5790 5788 5787 5786 5785 5785 5784 5783 5783 5783 5783 5782 5782 5781 5780 5780 5779 5778 5778 5776 5775 5775 5774 5774 5773 5773 5772 5771 5771
5810 5808 5806 5804 5802 5800 5798 5796 5794 5792 5790 5788 5786 5784 5782 5781 5780 5778 5777 5776 5776 5775 5774 5774 5774 5773 5773 5772 5771 5771 5770 5769 5769 5768 5767 5767 5766 5765 5765 5764 5764 5763 5763
5804 5802 5799 5797 5795 5793 5790 5788 5786 5784 5782 5780 5778 5776 5774 5773 5772 5770 5769 5768 5767 5766 5765 5765 5765 5764 5764 5763 5762 5762 5761 5761 5760 5759 5758 5758 5757 5756 5756 5756 5756 5755 5754